Cape Girardeau, MO

3:11 AM CST on November 20, 2019 (GMT -0600)
Cape Girardeau Regional

Weather History for KCGI - October, 2019

Change the Weather History Date:

Tuesday, October 15, 2019

  Actual Average Record
Temperature  
Mean Temperature 58 °F 58 °F  
Max Temperature 70 °F 71 °F 89 °F (1963)
Min Temperature 46 °F 45 °F 30 °F (1978)
Degree Days  
Heating Degree Days 7    
Month to date heating degree days  
Since 1 July heating degree days  
Cooling Degree Days 0    
Month to date cooling degree days  
Year to date cooling degree days  
Growing Degree Days 8 (Base 50)    
Moisture  
Dew Point 57 °F    
Average Humidity 85    
Maximum Humidity 94    
Minimum Humidity 70    
Precipitation  
Precipitation 0.02 in 0.12 in 2.31 in (1992)
Month to date precipitation 1.75  
Year to date precipitation 36.08  
Sea Level Pressure  
Sea Level Pressure 29.92 in    
Wind  
Wind Speed 4 mph (SW)    
Max Wind Speed 14 mph    
Max Gust Speed 22 mph    
Visibility 9 miles    
Events Rain , Thunderstorm    
T = Trace of Precipitation, MM = Missing Value Source: NWS Daily Summary

Daily Weather History Graph

Daily Weather History Graph

Search for Another Location

Airport or City:

Astronomy

Oct. 15, 2019 Rise Set
Actual Time 7:05 AM CDT 6:21 PM CDT
Civil Twilight 6:39 AM CDT 6:47 PM CDT
Nautical Twilight 6:09 AM CDT 7:18 PM CDT
Astronomical Twilight 5:39 AM CDT 7:48 PM CDT
Moon 7:43 PM CDT (10/15) 8:35 AM CDT (10/15)
Length of Visible Light 12h 08m
Length of Day
11h 15m
Full, 97% of the Moon is Illuminated
Oct 15
Full
Oct 21
Last Quarter
Oct 27
New
Nov 4
First Quarter
Nov 12
Full

Hourly Weather History & Observations

Time (CDT) Temp. Dew Point Humidity Pressure Visibility Wind Dir Wind Speed Gust Speed Precip Events Conditions
12:53 AM 46.9 °F 45.0 °F 93% 30.04 in 10.0 mi Calm Calm - N/A   Clear
1:53 AM 48.9 °F 46.0 °F 90% 30.02 in 10.0 mi Calm Calm - N/A   Clear
2:53 AM 53.1 °F 46.9 °F 80% 30.02 in 10.0 mi Calm Calm - N/A   Clear
3:53 AM 51.1 °F 46.9 °F 86% 30.00 in 10.0 mi ENE 3.5 mph - N/A   Clear
4:53 AM 48.0 °F 45.0 °F 89% 30.00 in 10.0 mi NNE 4.6 mph - N/A   Clear
5:53 AM 50.0 °F 46.9 °F 89% 30.00 in 10.0 mi Calm Calm - N/A   Overcast
6:53 AM 53.1 °F 50.0 °F 89% 30.00 in 10.0 mi ESE 3.5 mph - N/A   Overcast
7:11 AM 53.1 °F 50.0 °F 89% 30.00 in 10.0 mi ESE 3.5 mph - N/A   Overcast
7:53 AM 55.0 °F 51.1 °F 86% 29.99 in 10.0 mi SE 5.8 mph - N/A   Overcast
8:53 AM 57.0 °F 52.0 °F 83% 29.99 in 10.0 mi Calm Calm - N/A   Overcast
9:53 AM 60.1 °F 54.0 °F 80% 29.98 in 10.0 mi South 8.1 mph - N/A   Overcast
10:53 AM 63.0 °F 55.9 °F 78% 29.96 in 10.0 mi South 5.8 mph - N/A   Overcast
11:53 AM 66.9 °F 57.0 °F 70% 29.94 in 10.0 mi South 8.1 mph - N/A   Overcast
12:53 PM 68.0 °F 57.9 °F 70% 29.92 in 10.0 mi WSW 8.1 mph - N/A   Overcast
1:53 PM 66.9 °F 60.1 °F 79% 29.89 in 10.0 mi South 9.2 mph - N/A   Overcast
2:53 PM 68.0 °F 61.0 °F 78% 29.86 in 10.0 mi South 9.2 mph - N/A   Overcast
3:44 PM 69.1 °F 63.0 °F 81% 29.85 in 10.0 mi SSW 5.8 mph - N/A   Overcast
3:53 PM 70.0 °F 63.0 °F 78% 29.85 in 10.0 mi SW 4.6 mph - N/A   Overcast
4:53 PM 70.0 °F 64.0 °F 81% 29.85 in 10.0 mi WSW 6.9 mph - N/A   Overcast
5:53 PM 68.0 °F 64.0 °F 87% 29.85 in 9.0 mi South 5.8 mph - N/A   Overcast
6:53 PM 66.9 °F 63.0 °F 87% 29.84 in 10.0 mi WSW 4.6 mph - N/A   Mostly Cloudy
7:03 PM 66.0 °F 63.0 °F 90% 29.84 in 10.0 mi WSW 4.6 mph - N/A   Scattered Clouds
7:27 PM 64.9 °F 63.0 °F 93% 29.84 in 7.0 mi West 3.5 mph - N/A   Mostly Cloudy
7:50 PM 64.4 °F 62.6 °F 94% 29.83 in 8.0 mi Calm Calm - N/A   Overcast
7:53 PM 64.9 °F 62.1 °F 90% 29.83 in 8.0 mi SW 3.5 mph - N/A   Overcast
8:53 PM 66.0 °F 63.0 °F 90% 29.83 in 5.0 mi NW 5.8 mph - N/A   Overcast
9:26 PM 66.0 °F 63.0 °F 90% 29.85 in 5.0 mi WSW 4.6 mph - N/A   Mostly Cloudy
9:53 PM 66.0 °F 64.0 °F 93% 29.86 in 3.0 mi West 6.9 mph - 0.02 in Rain , Thunderstorm Light Rain
10:53 PM 66.0 °F 61.0 °F 84% 29.87 in 8.0 mi NNW 11.5 mph 17.3 mph 0.00 in   Overcast
11:53 PM 63.0 °F 53.1 °F 70% 29.89 in 7.0 mi NNW 13.8 mph 21.9 mph N/A   Overcast